Flag for Canada Weather past 2 weeks in Denare Beach, Saskatchewan, Canada

Now
64 °F

Clear.


Feels Like: 64 °F
Forecast: 56 / 71 °F
Wind: 8 mph from Southeast

Location: The Pas

Current Time: Aug 20, 2014 at 4:40:12 AM

Latest Report: Aug 20, 2014 at 4:00 AM


Visibility: 8 mi

Pressure: 29.65 "Hg

Humidity: 94%

Dew point: 63 °F

Location of Denare BeachLocation

Historic Weather in Denare Beach — Graph

°F

Denare Beach temperature yesterday

Maximum temperature yesterday: 82 °F (at 3:00 PM)
Minimum temperature yesterday: 61 °F (at 7:00 AM)
Average temperature yesterday: 72 °F

Past Weeks' High & Low Weather Summary

 TemperatureHumidityPressure
High84 °F (Aug 5, 3:00 PM)100% (Aug 8, 7:00 AM)30.19 "Hg (Aug 8, 7:00 AM)
Low52 °F (Aug 11, 6:00 AM)32% (Aug 8, 1:00 PM)29.62 "Hg (Aug 19, 3:00 PM)
Average70 °F70%29.92 "Hg
* Reported Aug 5 3:00 AM — Aug 20 3:00 AM, Denare Beach, Weather by CustomWeather, © 2014

Note: Actual official high and low records may vary slightly from our data, if they occured in-between our weather recording intervals... More about our weather records

Advertising

Denare Beach weather history for previous 24 hours

 ConditionsComfort  
Time TempWeatherWind HumidityBarometerVisibility
3:00 AM
Aug 20
66 °FClear.9 mph88%29.65 "Hg8 mi
2:00 AM66 °FClear.8 mph83%29.64 "Hg8 mi
1:00 AM68 °FClear.7 mph83%29.64 "Hg7 mi
12:00 AM68 °FClear.9 mph83%29.63 "Hg7 mi
11:00 PM
Aug 19
70 °FClear.9 mph78%29.63 "Hg7 mi
10:00 PM72 °FPassing clouds.8 mph73%29.64 "Hg8 mi
9:00 PM75 °FPartly sunny.6 mph69%29.63 "Hg7 mi
8:00 PM79 °FOvercast.3 mph61%29.63 "Hg5 mi
7:00 PM81 °FOvercast.2 mph51%29.62 "Hg5 mi
6:00 PM81 °FPartly sunny.5 mph51%29.62 "Hg5 mi
5:00 PM82 °FBroken clouds.6 mph48%29.62 "Hg5 mi
4:00 PM82 °FPartly sunny.7 mph42%29.62 "Hg5 mi
3:00 PM82 °FPartly sunny.6 mph45%29.62 "Hg5 mi
2:00 PM81 °FBroken clouds.9 mph51%29.62 "Hg5 mi
1:00 PM79 °FPartly sunny.6 mph58%29.62 "Hg5 mi
12:00 PM77 °FOvercast.8 mph61%29.62 "Hg5 mi
11:00 AM73 °FMore clouds than sun.12 mph65%29.63 "Hg5 mi
10:00 AM72 °FOvercast.10 mph65%29.62 "Hg5 mi
9:00 AM68 °FMore clouds than sun.7 mph73%29.63 "Hg5 mi
8:00 AM64 °FBroken clouds.7 mph78%29.62 "Hg5 mi
7:00 AM61 °FPartly cloudy.6 mph88%29.63 "Hg5 mi
6:00 AM63 °FPassing clouds.7 mph77%29.63 "Hg8 mi
5:00 AM63 °FClear.9 mph77%29.62 "Hg15 mi
4:00 AM64 °FPassing clouds.8 mph73%29.63 "Hg10 mi
Weather by CustomWeather, © 2014

See weather overviewHow to use our weather pages